Regional Weather Roundup
Issued by NWS

Home | Current Version | Previous Version | Text Only | Print | Product List | Glossary Off
Versions: 1 2 3 4 5 6 7 8 9 10 11 12 13 14 15 16 17 18 19 20 21 22 23 24 25 26 27 28 29 30 31 32 33 34 35 36 37 38 39 40 41 42 43

000
ASUS45 KBOU 232310
RWRCO

WEATHER ROUNDUP FOR COLORADO
NATIONAL WEATHER SERVICE DENVER/BOULDER CO
400 PM MST FRI FEB 23 2018

NOTE: "FAIR" INDICATES FEW OR NO CLOUDS BELOW 12000 FEET WITH NO
SIGNIFICANT WEATHER AND/OR OBSTRUCTIONS TO VISIBILITY.

COZ001>005-013-030-031-240000-
...NORTHWEST COLORADO...

CITY           SKY/WX    TMP DP  RH WIND       PRES   REMARKS
CRAIG          CLOUDY    32  11  41 SW14      29.84S WCI  22
HAYDEN         FAIR      28  15  58 W15       29.83S WCI  16
MEEKER         CLOUDY    30  13  49 S15       29.83S WCI  19
RANGELY        CLOUDY    29  24  80 W13       29.89R WCI  19
RABBIT EARS PA MOCLDY    16   7  67 SW10G20   29.76S WCI   3
STEAMBOAT SPGS CLOUDY    29  13  50 S5        29.82S WCI  24
WALDEN         CLOUDY    25   7  46 W15G24    29.82R WCI  12
$$

COZ006>008-011-240000-
...WEST CENTRAL VALLEYS...

CITY           SKY/WX    TMP DP  RH WIND       PRES   REMARKS
GRAND JUNCTION CLOUDY    36  21  54 W5        29.89F
MONTROSE       CLOUDY    29  20  69 W10       29.93R WCI  20
EAGLE          CLOUDY    33  14  45 W9        29.84S WCI  25
RIFLE          CLOUDY    27  24  89 W7        29.90S WCI  19
DELTA          CLOUDY    37  18  46 SW12G20   29.92
NUCLA          LGT SNOW  28  25  86 E5        29.97R VSB 3/4 WCI  23
$$

COZ017>023-064>068-240000-
...SOUTHWEST COLORADO...

CITY           SKY/WX    TMP DP  RH WIND       PRES   REMARKS
DURANGO        CLOUDY    33  18  53 CALM      29.88F
CORTEZ         PTSUNNY   29  22  75 W18G25    29.92R WCI  16
PAGOSA SPRINGS PTSUNNY   33  11  39 SW7       29.88  WCI  27
TELLURIDE      LGT SNOW  22  13  69 SE8       29.84S WCI  12
WOLF CREEK PAS   N/A      9   9 100 SW28G40   29.82F WCI -13
$$

COZ009-010-012-014-032>034-037-058>063-240000-
...CENTRAL COLORADO...

CITY           SKY/WX    TMP DP  RH WIND       PRES   REMARKS
ASPEN          PTSUNNY   29  11  47 N7        29.79S WCI  22
BUENA VISTA    FAIR      35  -9  15 S21G29    29.78S WCI  24
COPPER MTN     CLOUDY    16   5  62 SE6       29.75F HAZE    WCI   7
BERTHOUD PASS  CLOUDY     9  -4  56 S12G23    29.75S WCI  -6
COTTONWOOD PAS CLOUDY    30  -4  22 S10G24    29.77F WCI  21
GUNNISON       CLOUDY    31   7  36 S8        29.80F WCI  23
GRANBY         CLOUDY    27   7  43 NW3       29.81S
KREMMLING      FAIR      37   9  30 SW3       29.81F
LEADVILLE      CLOUDY    20   2  45 S8        29.74F WCI  10
MONARCH PASS   LGT SNOW  12   9  85 SW37G45   29.85R VSB 3/4 WCI -11
SALIDA         FAIR      39  -1  18 S16G25    29.87F
SUNLIGHT       SNOW      12   9  85 W3        29.78F VSB 1/2
WILKERSON PASS FAIR      21  -2  35 S13G29    29.79F WCI   9
$$

COZ069>075-240000-
...SAN LUIS VALLEY/SANGRE DE CRISTO MOUNTAINS...

CITY           SKY/WX    TMP DP  RH WIND       PRES   REMARKS
ALAMOSA        FAIR      38   6  26 SW25G33   29.85F
DEL NORTE      FAIR      32  11  41 W18G25    29.85F WCI  20
LA VETA PASS   CLOUDY    27   7  43 S17G35    29.95S WCI  14
SAGUACHE       FAIR      34   5  29 SW25G31   29.85S WCI  21
$$

COZ035-036-038>040-240000-
...NORTHERN COLORADO FRONT RANGE...

CITY           SKY/WX    TMP DP  RH WIND       PRES   REMARKS
DENVER INTL AP CLOUDY    28  22  78 N16       29.88F HAZE    WCI  16
AURORA         CLOUDY    26  24  92 NW17      29.89R FOG     WCI  13
FRONT RANGE AP PTSUNNY   32  27  80 NW16      29.88F WCI  21
ERIE MUNI ARPT CLOUDY    26  21  81 NW13      29.98F HAZE    WCI  15
BOULDER MUN AP CLOUDY    27  21  80 NW8       29.93F HAZE    WCI  18
CENTENNIAL     CLOUDY    27  22  81 N14       29.87S FOG     WCI  16
BROOMFIELD     CLOUDY    27  21  80 NW17      29.91S HAZE    WCI  14
FORT COLLINS   CLOUDY    25  20  81 N7        29.96F HAZE    WCI  17
LONGMONT       CLOUDY    28  21  74 NW6       29.96  HAZE    WCI  22
$$

COZ041-046-047-076>085-087-088-240000-
...PIKES PEAK/PALMER DIVIDE AND SOUTHERN FOOTHILLS...

CITY           SKY/WX    TMP DP  RH WIND       PRES   REMARKS
COLO. SPRINGS  FAIR      37  14  38 S15       29.87F
A. F. ACADEMY  FAIR      35  13  40 S13       29.84F WCI  26
SCHRIEVER AFB  NOT AVBL
CHEYENNE MTN   FAIR      30  15  51 SE12      29.79F WCI  21
ELLICOTT         N/A    N/A N/A N/A E10       29.86F
FALCON         FAIR      35   8  32 S13       29.86F WCI  27
FORT CARSON    FAIR      38  14  38 S10       29.86F
LIMON          FAIR      33  18  53 SE20      29.90F WCI  21
MONUMENT HILL  FAIR      34  12  40 S18G24    29.84F WCI  23
CANON CITY     SUNNY     41  18  38 NE9       29.87F
WALSENBURG     NOT AVBL
TRINIDAD       FAIR      38  19  46 N18G25    29.85R
$$

COZ042>045-048>051-090-091-240000-
...NORTHEAST COLORADO...

CITY           SKY/WX    TMP DP  RH WIND       PRES   REMARKS
GREELEY ARPT   FAIR      28  23  81 NW14      29.95F WCI  17
AKRON          FAIR      34  21  59 E16G26    29.95F WCI  24
BURLINGTON     FAIR      33  24  69 SE15      30.00F WCI  23
WRAY           PTSUNNY   34  23  64 E13G18    30.04S WCI  25
YUMA           NOT AVBL
STERLING       FAIR      37  19  48 SE14      29.98F
HOLYOKE        FAIR      34  21  60 E15       30.05S WCI  24
FORT MORGAN    FAIR      39  17  41 E17       29.94F
$$

COZ086-089-092>099-240000-
...SOUTHEAST COLORADO...

CITY           SKY/WX    TMP DP  RH WIND       PRES   REMARKS
PUEBLO         FAIR      35  21  56 SE15      29.90F WCI  25
LA JUNTA       FAIR      34  23  64 E20       29.93F WCI  23
LAMAR          CLOUDY    31  22  69 E10       29.98F WCI  22
SPRINGFIELD      N/A     32  26  78 SE18      29.93F WCI  20
$$




USA.gov is the U.S. government's official web portal to all federal, state and local government web resources and services.